Flight Track Log - Related Links

Times and Time Zones

All times are in EDT time to prevent confusion due to time zone crossing. See the ASH3751 flight status page for this flight to view local times or setup timezone preferences in your user account.

Time Position Orientation Groundspeed Altitude Reporting Facility
EDT Latitude Longitude Course Direction KTS MPH feet Rate Location/Type
Wed 11:10:48 PM 41.9500 -87.9000 66° East 165 190 1,600  Level Chicago TRACON
Wed 11:11:48 PM 41.9333 -87.8500 114° Southeast 209 241 3,600 1,960 Climbing Chicago TRACON
Wed 11:12:29 PM 41.9408 -87.7914 80° East 222 255 4,900 1,000 Climbing Chicago Center
Wed 11:13:00 PM 42.1301 -87.4519 63° Northeast  Level FlightAware
Wed 11:13:30 PM 41.9944 -87.7231 43° Northeast 263 303 5,300  Level Chicago Center
Wed 11:14:00 PM 42.1842 -87.2975 66° East  Level FlightAware
Wed 11:14:31 PM 42.0533 -87.6531 41° Northeast 281 323 7,800  Level Chicago Center
Wed 11:15:00 PM 42.2361 -87.1416 66° East  Level FlightAware
Wed 11:15:32 PM 42.1150 -87.5772 42° Northeast 297 342 10,600  Level Chicago Center
Wed 11:16:33 PM 42.1792 -87.5028 41° Northeast 305 351 13,100 1,820 Climbing Chicago Center
Wed 11:17:34 PM 42.1958 -87.3764 80° East 340 391 14,300 1,475 Climbing Chicago Center
Wed 11:18:35 PM 42.2100 -87.2381 82° East 367 422 16,100 1,721 Climbing Chicago Center
Wed 11:19:36 PM 42.2228 -87.0922 83° East 389 448 17,800 1,869 Climbing Chicago Center
Wed 11:20:37 PM 42.2406 -86.9131 82° East 403 464 19,900 1,820 Climbing Chicago Center
Wed 11:21:38 PM 42.2553 -86.7608 83° East 411 473 21,500 1,475 Climbing Chicago Center
Wed 11:22:39 PM 42.2689 -86.6103 83° East 420 483 22,900 738 Climbing Chicago Center
Wed 11:23:40 PM 42.2836 -86.4447 83° East 440 506 23,000 836 Climbing Chicago Center
Wed 11:24:41 PM 42.2989 -86.2797 83° East 465 535 24,600 1,721 Climbing Chicago Center
Wed 11:25:42 PM 42.3133 -86.1128 83° East 457 526 26,500 1,574 Climbing Chicago Center
Wed 11:26:43 PM 42.3125 -85.9125 90° East 450 518 27,800 1,131 Climbing Chicago Center
Wed 11:27:44 PM 42.3108 -85.7389 91° East 461 531 28,800 1,268 Climbing Chicago Center
Wed 11:28:46 PM 42.3086 -85.5683 91° East 460 529 30,400 1,073 Climbing Chicago Center
Wed 11:29:47 PM 42.3061 -85.3981 91° East 458 527 31,000 298 Climbing Chicago Center
Wed 11:30:47 PM 42.3033 -85.2208 91° East 470 541 31,000  Level Chicago Center
Wed 11:31:48 PM 42.3000 -85.0383 91° East 483 556 31,000  Level Chicago Center
Wed 11:32:49 PM 42.2958 -84.8547 92° East 489 563 31,000  Level Chicago Center
Wed 11:33:50 PM 42.2917 -84.6717 92° East 490 564 31,000  Level Chicago Center
Wed 11:34:51 PM 42.2872 -84.4872 92° East 492 566 31,000  Level Chicago Center
Wed 11:35:52 PM 42.3100 -84.3064 80° East 490 564 31,000  Level Chicago Center
Wed 11:36:53 PM 42.3408 -84.0911 79° East 488 562 31,000  Level Chicago Center
Wed 11:37:58 PM 42.3644 -83.8994 80° East 482 555 31,000  Level Cleveland Center
Wed 11:38:58 PM 42.3853 -83.7514 79° East 487 560 31,000  Level Cleveland Center
Wed 11:39:58 PM 42.4078 -83.5361 82° East 487 560 31,000  Level Cleveland Center
Wed 11:40:58 PM 42.4164 -83.3508 86° East 487 560 31,000  Level Cleveland Center
Wed 11:41:58 PM 42.4225 -83.1767 87° East 487 560 31,000  Level Cleveland Center
Wed 11:42:58 PM 42.4286 -82.9939 87° East 493 567 31,000  Level Cleveland Center
Wed 11:43:58 PM 42.4344 -82.8056 88° East 493 567 31,000  Level Cleveland Center
Wed 11:44:58 PM 42.4400 -82.6175 88° East 493 567 31,000  Level Cleveland Center
Wed 11:45:58 PM 42.4433 -82.4317 89° East 493 567 31,000  Level Cleveland Center
Wed 11:46:58 PM 42.4567 -82.2436 84° East 493 567 31,000  Level Cleveland Center
Wed 11:47:58 PM 42.4694 -82.0553 85° East 499 574 31,000  Level Cleveland Center
Wed 11:48:58 PM 42.4822 -81.8669 85° East 499 574 31,000  Level Cleveland Center
Wed 11:49:58 PM 42.4944 -81.6814 85° East 494 568 31,000  Level Cleveland Center
Wed 11:50:58 PM 42.5067 -81.4928 85° East 500 575 31,000  Level Cleveland Center
Wed 11:51:58 PM 42.5206 -81.2958 84° East 505 581 31,000  Level Cleveland Center
Wed 11:52:58 PM 42.5342 -81.0875 85° East 500 575 31,000  Level Cleveland Center
Wed 11:53:58 PM 42.5453 -80.8989 85° East 500 575 31,000  Level Cleveland Center
Wed 11:54:58 PM 42.5561 -80.7100 85° East 505 581 31,000  Level Cleveland Center
Wed 11:55:58 PM 42.5664 -80.5128 86° East 511 588 31,000  Level Cleveland Center
Wed 11:56:58 PM 42.5786 -80.3181 85° East 517 595 31,000  Level Cleveland Center
Wed 11:57:58 PM 42.5864 -80.1206 87° East 517 595 31,000  Level Cleveland Center
Wed 11:58:58 PM 42.6022 -79.9289 84° East 522 601 31,000  Level Cleveland Center
Wed 11:59:58 PM 42.6092 -79.7314 87° East 517 595 31,000  Level Cleveland Center
Thu 12:00:58 AM 42.6203 -79.5364 86° East 517 595 31,000  Level Cleveland Center
Thu 12:01:58 AM 42.6286 -79.3417 87° East 517 595 31,000  Level Cleveland Center
Thu 12:02:58 AM 42.6389 -79.1467 86° East 517 595 31,000  Level Cleveland Center
Thu 12:03:58 AM 42.6489 -78.9517 86° East 517 595 31,000  Level Cleveland Center
Thu 12:04:58 AM 42.6542 -78.7539 88° East 517 595 31,000  Level Cleveland Center
Thu 12:05:58 AM 42.6614 -78.5617 87° East 517 595 31,000  Level Cleveland Center
Thu 12:06:58 AM 42.6703 -78.3636 86° East 517 595 31,000  Level Cleveland Center
Thu 12:07:58 AM 42.6769 -78.1714 87° East 517 595 31,000  Level Cleveland Center
Thu 12:08:58 AM 42.6831 -77.9789 87° East 517 595 31,000 -150 Level Cleveland Center
Thu 12:09:58 AM 42.6878 -77.8233 88° East 517 595 30,700 -900 Descending Cleveland Center
Thu 12:10:58 AM 42.6972 -77.6167 86° East 517 595 29,200 -543 Descending Cleveland Center
Thu 12:13:06 AM 42.7053 -77.1961 88° East 504 580 29,000 -64 Descending Boston Center
Thu 12:14:06 AM 42.7111 -77.0044 88° East 498 573 29,000  Level Boston Center
Thu 12:15:06 AM 42.7164 -76.8125 88° East 498 573 29,000  Level Boston Center
Thu 12:16:06 AM 42.7217 -76.6233 88° East 498 573 29,000  Level Boston Center
Thu 12:17:06 AM 42.7242 -76.4342 89° East 498 573 29,000  Level Boston Center
Thu 12:18:06 AM 42.7294 -76.2789 87° East 498 573 29,000 -950 Level Boston Center
Thu 12:19:06 AM 42.7342 -76.0756 88° East 492 566 27,100 -1,850 Descending Boston Center
Thu 12:20:06 AM 42.7356 -75.8947 89° East 486 559 25,300 -1,550 Descending Boston Center
Thu 12:21:06 AM 42.7350 -75.7053 90° East 481 554 24,000 -1,450 Descending Boston Center
Thu 12:22:06 AM 42.7400 -75.5217 88° East 487 560 22,400 -1,650 Descending Boston Center
Thu 12:23:06 AM 42.7406 -75.3436 90° East 481 554 20,700 -1,700 Descending Boston Center
Thu 12:24:06 AM 42.7428 -75.1739 89° East 462 532 19,000 -1,550 Descending Boston Center
Thu 12:25:06 AM 42.7467 -75.0017 88° East 457 526 17,600 -1,667 Descending Boston Center
Thu 12:25:36 AM 42.7447 -74.9028 92° East 448 516 16,500 -1,700 Descending Boston Center
Thu 12:26:06 AM 42.7461 -74.8378 88° East 445 512 15,900 -1,700 Descending Boston Center
Thu 12:26:36 AM 42.7481 -74.7389 88° East 428 493 14,800 -1,800 Descending Boston Center
Thu 12:27:06 AM 42.7414 -74.6622 97° East 429 494 14,100 -1,672 Descending Boston Center
Thu 12:27:37 AM 42.7344 -74.5911 98° East 398 458 13,100 -1,978 Descending Boston Center
Thu 12:28:37 AM 42.7203 -74.4439 97° East 391 450 11,100 -1,537 Descending Boston Center
Thu 12:29:38 AM 42.7058 -74.3161 99° East 323 372 10,000 -1,377 Descending Boston Center
Thu 12:30:39 AM 42.6953 -74.1944 97° East 288 331 8,300 -1,785 Descending Boston Center
Thu 12:31:39 AM 42.6844 -74.0867 98° East 295 339 6,400 -1,884 Descending Boston Center
Thu 12:32:40 AM 42.6733 -73.9847 98° East 263 303 4,500 -1,686 Descending Boston Center
Thu 12:33:40 AM 42.6642 -73.8886 97° East 253 291 3,000 -1,091 Descending Boston Center
Thu 12:34:41 AM 42.6650 -73.8153 89° East 185 213 2,300 -934 Descending Boston Center
Thu 12:35:42 AM 42.7028 -73.8075 North 118 136 1,100 -1,180 Descending Boston Center

Login

Don't have an account? Register now (free) for customized features, flight alerts, and more!